Regional Weather Roundup
Issued by NWS Midland/Odessa, TX

Skip options and go directly to product.
Home | Oldest Version | Previous Version | Current Version | All | Text Only | Save Text | Print | Product List | Glossary On

Skip product version selection by date and time.   
413
ASUS44 KMAF 220310
RWRMAF
MIDLAND AREA WEATHER ROUNDUP
NATIONAL WEATHER SERVICE MIDLAND TX
900 PM CST SUN DEC 21 2014

...IN SOUTHWEST TEXAS AND SOUTHEAST NEW MEXICO...

CITY           SKY/WX    TMP DP  RH WIND       PRES   REMARKS
ALPINE         CLOUDY    55  22  27 S10       29.96R
ANDREWS        FAIR      56  28  34 W10       29.74R
ARTESIA        PTCLDY    55  28  35 SW17G26   29.75F
BIG SPRING     CLOUDY    59  26  28 SW13      29.73R
CARLSBAD       CLEAR     61  25  25 W26G33    29.74S
DRYDEN           N/A     46  43  89 NE3       29.79F
FORT STOCKTON  CLOUDY    57  25  29 SW12      29.80R
GUAD PASS      NOT AVBL
HOBBS          MOCLDY    54  27  35 W18       29.74F
MARFA          CLOUDY    45  21  39 SW3       29.95S
MIDLAND AIRPK  CLOUDY    61  26  25 W15G22    29.74R
MIDLAND INTL   CLOUDY    60  25  26 W18       29.73R
ODESSA         CLOUDY    59  23  25 W17       29.75R
PECOS          CLOUDY    58  25  27 W14       29.79R
PRESIDIO       FAIR      56  28  34 N8        29.90S
SEMINOLE       MOCLDY    56  27  33 W18G24    29.72F
SNYDER         CLOUDY    53  30  41 S8        29.68F
WINK           CLOUDY    60  23  24 W18G29    29.73F
$$
...OTHER STATIONS IN TEXAS...

CITY           SKY/WX    TMP DP  RH WIND       PRES   REMARKS
ABILENE        CLOUDY    54  42  64 S16       29.69F
AMARILLO       MOCLDY    41  26  55 SW7       29.58F WCI  36
AUSTIN         DRIZZLE   55  52  89 S14       29.87F
BROWNSVILLE    CLOUDY    63  60  90 NW3       29.93S
CORPUS CHRISTI CLOUDY    60  56  86 CALM      29.92S
DALLAS FTW     CLOUDY    51  46  83 S16       29.78F
DEL RIO        PTCLDY    52  48  86 SE9       29.83F
EL PASO        PTCLDY    59  26  28 W22G38    29.90F
HOUSTON INT    MOCLDY    55  52  89 SE9       29.91F
LUBBOCK        MOCLDY    54  27  35 W13       29.62F
SAN ANGELO     MOCLDY    51  44  77 S17       29.75F
SAN ANTONIO    CLOUDY    55  51  86 SW6       29.89S
WACO           CLOUDY    53  49  86 S15       29.82F
WICHITA FALLS  NOT AVBL
$$
...OTHER LOCATIONS IN NEW MEXICO...

CITY           SKY/WX    TMP DP  RH WIND       PRES   REMARKS
ALAMAGORDO     PTCLDY    50  27  40 NE6       29.89F
ALBUQUERQUE    PTCLDY    42  29  59 CALM      29.95R
CANNON AFB     PTCLDY    51  28  40 W21       29.66R
CLOVIS         PTCLDY    50  27  40 W25G31    29.64R
HOLLOMAN AFB   PTCLDY    43  29  59 E6        29.88F WCI  39
ROSWELL        CLOUDY    54  26  34 W12       29.74F
RUIDOSO        PTCLDY    48  25  40 W28G43    29.86F WCI  40
SANTA FE       MOCLDY    33  26  75 CALM      29.89F
TRUTH OR CONSE CLEAR     54  29  38 NW15      29.92S
TUCUMCARI      CLEAR     49  26  41 W13       29.63R
$$

USA.gov is the U.S. government's official web portal to all federal, state and local government web resources and services.